Vorticity
4 7 5 3 4 3 3 3 3 0 2 3 5 6 5 7 13 12 12 11 9 10 6 2 3 13 9 3 4 9 16 13 13 16 8 2 7 21 19 23 20 23 28 29
7 6 4 0 2 -0 -1 1 5 5 4 6 7 5 10 10 7 11 10 10 5 9 13 10 7 5 12 17 16 21 17 5 12 14 12 20 20 18 19 29 36 42 39 37
3 5 3 -0 1 5 8 5 4 5 6 4 6 6 1 5 4 11 2 9 9 4 6 8 6 18 19 11 14 7 -24 13 21 18 19 21 30 39 35 23 23 17 15 17
2 -1 -5 6 1 7 3 5 5 3 1 3 8 5 2 7 8 5 7 8 2 7 5 13 14 15 20 11 -9 13 13 20 38 40 35 34 26 21 18 16 13 12 11 16
5 9 7 5 11 5 3 4 6 7 10 9 4 11 9 10 8 8 3 5 4 15 18 23 23 6 -10 14 20 22 42 57 22 24 20 19 16 14 13 5 6 6 10 11
6 6 7 3 4 7 9 1 9 9 7 9 10 7 9 10 5 3 5 14 9 18 22 -2 9 26 35 40 33 40 37 -4 -1 22 13 9 7 5 8 5 5 10 13 16
-0 1 5 8 3 3 -2 13 5 6 8 8 9 6 17 4 9 9 12 22 24 13 17 43 43 37 33 36 40 27 16 10 8 11 13 10 11 12 5 1 3 14 16 17
4 9 9 7 7 5 13 18 10 8 9 5 9 7 8 10 10 14 25 20 22 51 25 28 29 30 23 32 25 5 -0 -1 17 9 13 11 9 7 2 1 9 16 18 17
8 12 6 4 3 5 8 11 11 8 7 10 6 5 1 1 15 8 12 51 35 27 28 22 31 38 15 6 8 11 9 15 9 12 11 6 2 1 4 11 24 19 16 16
6 8 5 3 1 -1 4 9 12 5 6 2 9 8 17 7 18 35 52 36 32 28 14 4 2 5 10 9 12 14 11 7 9 6 2 1 4 12 18 24 23 19 15 16
8 6 3 -1 2 3 10 10 8 11 8 6 -1 12 12 23 30 29 31 23 14 8 4 6 8 9 12 11 9 7 4 2 4 8 15 24 27 24 12 13 18 33 21 10
0 1 5 9 13 13 2 12 13 5 5 8 7 13 10 20 49 25 9 3 3 3 3 2 2 4 8 15 16 18 22 26 29 32 23 16 13 21 35 44 31 10 11 45
6 6 6 6 11 10 14 9 9 4 2 7 15 20 12 43 29 -1 8 1 4 6 7 8 14 21 28 24 19 20 22 17 10 1 8 21 33 28 17 10 10 30 11 6
4 5 5 10 11 9 13 12 7 3 6 7 16 14 39 42 7 9 2 1 5 6 6 10 17 16 1 12 11 11 9 5 8 14 17 26 13 13 16 22 14 15 12 17
3 2 9 9 10 7 12 10 7 3 4 16 13 34 34 21 5 4 3 3 7 8 15 19 22 23 15 25 25 15 5 14 15 17 16 18 19 12 20 19 21 24 17 19
2 4 5 13 6 8 9 7 5 5 7 8 17 34 46 9 3 2 4 5 8 13 19 15 18 22 -8 14 24 26 30 19 16 15 20 17 23 10 9 -13 -6 16 15 16
-1 5 4 9 8 11 7 11 5 9 10 10 29 47 22 11 4 3 5 7 11 15 18 -1 18 23 2 16 35 31 22 15 17 23 27 23 21 15 13 15 23 30 48 46
1 5 8 11 5 12 7 5 4 15 9 15 32 37 10 4 5 7 5 10 12 19 14 16 21 2 22 29 29 19 11 18 17 18 16 23 31 27 21 19 14 11 5 5
7 7 7 7 9 4 8 7 6 5 11 25 49 29 9 8 8 5 5 11 18 1 10 29 14 15 34 28 10 12 20 10 20 -15 0 34 16 29 34 31 23 18 25 15
7 7 13 7 5 9 9 5 10 5 16 25 41 19 10 7 7 5 5 14 10 12 23 15 9 34 27 11 13 15 10 21 4 -6 6 31 28 30 19 14 17 18 18 23
6 6 7 7 5 8 2 6 6 4 5 27 48 17 10 4 2 4 11 20 6 27 33 6 30 24 9 13 8 25 6 8 6 22 34 10 22 24 -5 14 11 34 11 20
7 16 10 9 6 9 6 9 10 8 13 30 48 12 9 4 6 7 18 9 21 26 23 20 30 14 13 2 9 3 -3 9 20 41 17 15 14 21 19 12 25 -1 3 8
11 13 11 13 6 3 2 8 2 7 17 40 40 8 7 5 6 11 17 17 23 21 23 20 21 13 -2 9 16 0 6 19 38 26 22 13 9 8 13 11 17 10 34 12
13 8 8 11 10 3 3 9 4 9 21 40 30 5 4 6 8 18 19 23 18 15 17 15 22 3 8 11 10 -2 18 29 25 15 -4 7 17 6 -1 6 9 16 12 5
10 12 5 5 9 1 7 5 10 10 25 44 29 3 2 6 12 18 22 14 -7 16 6 23 10 6 8 13 -3 18 3 37 13 21 0 5 -0 3 6 8 4 -1 2 0
12 7 7 7 5 5 8 10 11 11 22 52 29 10 3 9 15 17 19 9 2 22 9 26 7 5 8 14 -1 9 23 40 -12 -8 14 10 -0 14 22 22 17 5 7 8
Height
5879 5878 5876 5874 5871 5868 5865 5859 5852 5845 5839 5831 5827 5820 5813 5804 5793 5783 5772 5761 5750 5740 5729 5717 5706 5696 5686 5675 5665 5654 5643 5632 5625 5616 5609 5604 5600 5597 5591 5585 5581 5578 5576 5576
5879 5877 5874 5870 5866 5862 5858 5852 5846 5841 5833 5824 5819 5809 5799 5788 5778 5764 5754 5743 5733 5721 5708 5695 5683 5670 5659 5648 5638 5631 5623 5616 5606 5597 5592 5584 5577 5572 5565 5560 5557 5553 5550 5548
5876 5874 5872 5869 5865 5860 5854 5848 5841 5834 5826 5817 5807 5797 5784 5773 5760 5750 5737 5725 5712 5698 5687 5673 5661 5649 5638 5627 5619 5613 5605 5597 5585 5575 5568 5561 5555 5550 5545 5542 5538 5536 5532 5529
5877 5874 5870 5865 5860 5855 5850 5843 5836 5828 5817 5805 5795 5781 5770 5757 5748 5734 5721 5708 5694 5681 5665 5650 5636 5625 5616 5608 5601 5591 5576 5568 5560 5552 5546 5541 5538 5535 5533 5527 5524 5521 5517 5514
5874 5869 5865 5860 5855 5849 5843 5835 5827 5819 5810 5797 5783 5770 5754 5747 5732 5719 5706 5689 5674 5658 5641 5628 5617 5609 5599 5585 5575 5566 5558 5553 5545 5538 5533 5528 5525 5522 5520 5517 5512 5508 5504 5499
5869 5865 5861 5854 5848 5842 5835 5829 5819 5810 5800 5788 5774 5758 5747 5733 5716 5702 5686 5668 5650 5633 5622 5613 5601 5586 5573 5562 5553 5550 5545 5543 5536 5530 5524 5518 5513 5510 5507 5503 5500 5496 5490 5485
5866 5860 5854 5850 5842 5835 5828 5820 5811 5803 5790 5777 5763 5746 5735 5716 5699 5681 5664 5647 5631 5617 5604 5590 5576 5565 5554 5545 5538 5536 5535 5532 5526 5521 5515 5509 5503 5498 5493 5489 5484 5480 5476 5472
5860 5855 5849 5843 5835 5828 5819 5809 5798 5783 5771 5762 5756 5739 5723 5701 5684 5667 5645 5627 5618 5603 5584 5569 5558 5547 5540 5535 5532 5530 5526 5521 5516 5511 5505 5500 5494 5487 5483 5477 5471 5466 5461 5459
5855 5849 5842 5835 5827 5819 5808 5800 5790 5777 5762 5744 5730 5714 5705 5686 5671 5654 5632 5613 5597 5584 5571 5560 5552 5543 5537 5532 5528 5523 5518 5512 5505 5499 5494 5489 5483 5477 5470 5462 5456 5452 5449 5447
5849 5843 5836 5828 5819 5812 5801 5791 5778 5765 5746 5734 5723 5701 5684 5666 5650 5631 5614 5599 5589 5578 5569 5560 5551 5544 5537 5529 5521 5515 5508 5501 5496 5490 5483 5475 5469 5463 5455 5447 5442 5439 5436 5435
5843 5838 5831 5823 5813 5803 5793 5782 5769 5754 5739 5721 5700 5689 5666 5644 5626 5610 5601 5592 5582 5574 5567 5559 5550 5542 5534 5526 5517 5509 5500 5492 5485 5477 5470 5463 5456 5449 5443 5436 5431 5428 5427 5425
5839 5833 5824 5815 5805 5796 5785 5770 5759 5745 5730 5712 5693 5678 5655 5639 5623 5609 5601 5591 5582 5574 5565 5557 5547 5537 5528 5518 5509 5499 5490 5482 5474 5467 5461 5454 5447 5438 5430 5425 5423 5422 5421 5417
5832 5826 5815 5804 5798 5787 5776 5764 5751 5737 5716 5697 5679 5663 5646 5630 5620 5610 5598 5590 5582 5572 5562 5553 5542 5531 5520 5509 5500 5491 5482 5475 5469 5462 5454 5447 5438 5431 5427 5423 5420 5417 5417 5414
5828 5820 5810 5800 5789 5779 5769 5756 5740 5725 5707 5690 5671 5651 5638 5624 5615 5609 5598 5588 5577 5566 5557 5546 5535 5525 5515 5505 5496 5488 5480 5472 5465 5458 5451 5443 5437 5431 5426 5422 5419 5416 5413 5413
5822 5814 5804 5792 5781 5771 5760 5746 5730 5714 5694 5676 5663 5643 5626 5616 5607 5599 5593 5585 5576 5565 5554 5542 5529 5519 5510 5500 5493 5483 5476 5469 5463 5455 5448 5441 5436 5432 5428 5423 5420 5418 5416 5414
5815 5806 5795 5786 5775 5765 5752 5738 5722 5706 5687 5672 5659 5644 5625 5617 5609 5601 5592 5581 5571 5561 5549 5538 5527 5517 5508 5498 5487 5478 5473 5468 5461 5455 5449 5444 5440 5435 5431 5427 5423 5422 5421 5419
5808 5799 5789 5779 5768 5758 5748 5731 5717 5702 5680 5661 5646 5632 5623 5619 5612 5600 5587 5577 5564 5554 5544 5534 5524 5514 5506 5495 5485 5479 5475 5471 5465 5459 5453 5449 5444 5440 5435 5431 5427 5424 5423 5423
5801 5793 5783 5772 5760 5752 5740 5725 5710 5693 5672 5656 5642 5628 5619 5613 5610 5599 5589 5574 5564 5553 5542 5532 5522 5514 5505 5495 5489 5485 5481 5475 5470 5467 5461 5455 5448 5443 5438 5434 5431 5430 5431 5432
5795 5786 5776 5766 5756 5747 5734 5719 5706 5689 5674 5653 5640 5631 5623 5616 5612 5604 5591 5580 5567 5555 5543 5532 5523 5515 5507 5501 5497 5492 5487 5483 5478 5474 5467 5460 5454 5448 5444 5442 5440 5440 5440 5441
5789 5780 5770 5760 5750 5739 5727 5714 5697 5681 5666 5648 5634 5626 5621 5613 5605 5597 5586 5574 5565 5555 5544 5534 5527 5519 5515 5510 5504 5500 5496 5492 5486 5480 5475 5469 5464 5460 5457 5455 5454 5452 5449 5453
5782 5772 5763 5754 5744 5734 5719 5708 5692 5676 5669 5651 5634 5625 5620 5611 5601 5591 5582 5575 5566 5555 5544 5539 5532 5527 5523 5518 5514 5508 5505 5501 5495 5490 5485 5480 5477 5474 5472 5471 5468 5461 5464 5465
5775 5766 5757 5747 5737 5726 5714 5702 5687 5673 5656 5641 5631 5625 5619 5612 5604 5596 5586 5576 5566 5558 5550 5546 5540 5536 5532 5527 5522 5518 5515 5510 5507 5501 5497 5493 5490 5487 5485 5485 5483 5480 5481 5480
5768 5760 5750 5742 5731 5717 5705 5693 5679 5664 5648 5638 5630 5624 5618 5612 5604 5596 5587 5578 5569 5562 5556 5552 5548 5543 5540 5536 5532 5529 5525 5522 5518 5515 5511 5507 5504 5501 5499 5498 5498 5497 5497 5496
5761 5753 5745 5737 5727 5714 5701 5689 5673 5659 5645 5635 5628 5624 5618 5612 5604 5597 5590 5582 5575 5569 5563 5559 5555 5552 5548 5545 5542 5538 5535 5532 5530 5527 5525 5522 5518 5515 5513 5512 5511 5511 5510 5510
5754 5747 5739 5731 5721 5710 5699 5686 5674 5657 5644 5635 5627 5623 5618 5613 5606 5600 5592 5586 5580 5574 5570 5566 5562 5559 5555 5553 5550 5547 5544 5543 5540 5540 5538 5536 5532 5529 5527 5526 5525 5526 5523 5525
5748 5741 5734 5725 5717 5707 5697 5684 5670 5656 5646 5635 5629 5625 5620 5613 5606 5602 5596 5590 5585 5581 5577 5573 5570 5566 5563 5561 5559 5556 5554 5553 5552 5551 5550 5548 5547 5546 5544 5543 5542 5540 5538 5539